Time,TemperatureF,DewpointF,PressureIn,WindDirection,WindDirectionDegrees,WindSpeedMPH,WindSpeedGustMPH,Humidity,HourlyPrecipIn,Conditions,Clouds,dailyrainin,SoftwareType,DateUTC
2013-09-07 00:01:00,69.3,49.0,30.10,WSW,247,0.0,0.0,48,0.00,,,0.00,Rainwise IP-100,2013-09-07 07:01:00,
2013-09-07 00:06:00,70.3,49.0,30.10,WSW,247,0.0,0.0,47,0.00,,,0.00,Rainwise IP-100,2013-09-07 07:06:00,
2013-09-07 00:11:00,70.9,50.0,30.10,WSW,247,0.0,0.0,47,0.00,,,0.00,Rainwise IP-100,2013-09-07 07:11:00,
2013-09-07 00:16:00,70.4,49.0,30.09,WSW,247,0.0,0.0,47,0.00,,,0.00,Rainwise IP-100,2013-09-07 07:16:00,
2013-09-07 00:21:00,70.1,49.0,30.09,WSW,247,0.0,0.0,47,0.00,,,0.00,Rainwise IP-100,2013-09-07 07:21:00,
2013-09-07 00:26:00,70.0,49.0,30.09,WSW,247,0.0,0.0,47,0.00,,,0.00,Rainwise IP-100,2013-09-07 07:26:00,
2013-09-07 00:31:00,69.5,49.0,30.09,WSW,247,0.0,0.0,48,0.00,,,0.00,Rainwise IP-100,2013-09-07 07:31:00,
2013-09-07 00:36:00,68.8,48.0,30.09,WSW,247,0.0,0.0,49,0.00,,,0.00,Rainwise IP-100,2013-09-07 07:36:00,
2013-09-07 00:41:00,68.5,49.0,30.10,WSW,247,0.0,0.0,50,0.00,,,0.00,Rainwise IP-100,2013-09-07 07:41:00,
2013-09-07 00:46:00,68.9,49.0,30.09,WSW,247,0.0,0.0,49,0.00,,,0.00,Rainwise IP-100,2013-09-07 07:46:00,
2013-09-07 00:51:00,69.7,48.0,30.09,WSW,247,0.0,0.0,47,0.00,,,0.00,Rainwise IP-100,2013-09-07 07:51:00,
2013-09-07 00:56:00,70.0,48.0,30.09,NNW,337,1.6,1.6,46,0.00,,,0.00,Rainwise IP-100,2013-09-07 07:56:00,
2013-09-07 01:01:00,70.0,48.0,30.10,NNE,22,1.4,2.0,46,0.00,,,0.00,Rainwise IP-100,2013-09-07 08:01:00,
2013-09-07 01:06:00,70.3,48.0,30.10,NNE,22,2.1,3.0,46,0.00,,,0.00,Rainwise IP-100,2013-09-07 08:06:00,
2013-09-07 01:11:00,70.7,48.0,30.10,North,360,1.6,3.0,45,0.00,,,0.00,Rainwise IP-100,2013-09-07 08:11:00,
2013-09-07 01:16:00,70.9,48.0,30.10,North,360,0.0,4.0,45,0.00,,,0.00,Rainwise IP-100,2013-09-07 08:16:00,
2013-09-07 01:21:00,70.8,48.0,30.10,NNE,22,1.9,3.0,45,0.00,,,0.00,Rainwise IP-100,2013-09-07 08:21:00,
2013-09-07 01:26:00,70.7,48.0,30.10,North,360,2.8,3.0,45,0.00,,,0.00,Rainwise IP-100,2013-09-07 08:26:00,
2013-09-07 01:31:00,70.7,48.0,30.09,NNE,22,2.1,3.0,45,0.00,,,0.00,Rainwise IP-100,2013-09-07 08:31:00,
2013-09-07 01:36:00,70.9,48.0,30.10,NNE,22,2.8,4.0,45,0.00,,,0.00,Rainwise IP-100,2013-09-07 08:36:00,
2013-09-07 01:41:00,71.0,48.0,30.09,NNE,22,1.2,3.0,45,0.00,,,0.00,Rainwise IP-100,2013-09-07 08:41:00,
2013-09-07 01:46:00,70.9,48.0,30.09,ENE,67,0.0,3.0,45,0.00,,,0.00,Rainwise IP-100,2013-09-07 08:46:00,
2013-09-07 01:51:00,70.6,48.0,30.10,NNE,22,2.1,3.0,45,0.00,,,0.00,Rainwise IP-100,2013-09-07 08:51:00,
2013-09-07 01:56:00,70.2,48.0,30.09,NNE,22,0.0,2.0,46,0.00,,,0.00,Rainwise IP-100,2013-09-07 08:56:00,
2013-09-07 02:01:00,69.7,48.0,30.09,NNE,22,3.3,3.3,47,0.00,,,0.00,Rainwise IP-100,2013-09-07 09:01:00,
2013-09-07 02:06:00,69.6,48.0,30.09,NNE,22,1.6,4.0,47,0.00,,,0.00,Rainwise IP-100,2013-09-07 09:06:00,
2013-09-07 02:11:00,69.6,48.0,30.09,NNW,337,1.2,3.0,47,0.00,,,0.00,Rainwise IP-100,2013-09-07 09:11:00,
2013-09-07 02:16:00,69.6,48.0,30.09,NNE,22,1.9,4.0,47,0.00,,,0.00,Rainwise IP-100,2013-09-07 09:16:00,
2013-09-07 02:21:00,69.7,48.0,30.09,North,360,3.0,4.0,47,0.00,,,0.00,Rainwise IP-100,2013-09-07 09:21:00,
2013-09-07 02:26:00,69.4,49.0,30.09,NNW,337,3.5,5.0,48,0.00,,,0.00,Rainwise IP-100,2013-09-07 09:26:00,
2013-09-07 02:31:00,69.1,49.0,30.09,NNE,22,2.3,4.0,49,0.00,,,0.00,Rainwise IP-100,2013-09-07 09:31:00,
2013-09-07 02:36:00,69.3,49.0,30.09,North,360,1.4,3.0,49,0.00,,,0.00,Rainwise IP-100,2013-09-07 09:36:00,
2013-09-07 02:41:00,69.6,49.0,30.09,NNE,22,2.8,3.0,48,0.00,,,0.00,Rainwise IP-100,2013-09-07 09:41:00,
2013-09-07 02:46:00,69.7,49.0,30.09,NNE,22,2.1,4.0,48,0.00,,,0.00,Rainwise IP-100,2013-09-07 09:46:00,
2013-09-07 02:51:00,69.6,49.0,30.09,North,360,2.8,4.0,48,0.00,,,0.00,Rainwise IP-100,2013-09-07 09:51:00,
2013-09-07 02:56:00,69.4,49.0,30.08,NNE,22,2.8,4.0,49,0.00,,,0.00,Rainwise IP-100,2013-09-07 09:56:00,
2013-09-07 03:01:00,69.2,50.0,30.09,North,360,3.0,4.0,51,0.00,,,0.00,Rainwise IP-100,2013-09-07 10:01:00,
2013-09-07 03:03:00,69.1,50.0,30.08,NNE,22,3.0,4.0,52,0.00,,,0.00,Rainwise IP-100,2013-09-07 10:03:00,
2013-09-07 03:08:00,68.9,50.0,30.09,North,360,3.7,4.0,52,0.00,,,0.00,Rainwise IP-100,2013-09-07 10:08:00,
2013-09-07 03:13:00,68.9,50.0,30.08,North,360,2.3,4.0,51,0.00,,,0.00,Rainwise IP-100,2013-09-07 10:13:00,
2013-09-07 03:18:00,68.9,50.0,30.08,North,360,3.0,3.0,50,0.00,,,0.00,Rainwise IP-100,2013-09-07 10:18:00,
2013-09-07 03:23:00,68.9,50.0,30.09,North,360,1.4,3.0,50,0.00,,,0.00,Rainwise IP-100,2013-09-07 10:23:00,
2013-09-07 03:28:00,68.9,50.0,30.09,NNE,22,2.6,4.0,50,0.00,,,0.00,Rainwise IP-100,2013-09-07 10:28:00,
2013-09-07 03:33:00,68.6,50.0,30.09,NNE,22,2.8,4.0,51,0.00,,,0.00,Rainwise IP-100,2013-09-07 10:33:00,
2013-09-07 03:38:00,68.2,50.0,30.08,NNE,22,2.6,4.0,52,0.00,,,0.00,Rainwise IP-100,2013-09-07 10:38:00,
2013-09-07 03:43:00,68.0,51.0,30.08,NNE,22,2.1,3.0,55,0.00,,,0.00,Rainwise IP-100,2013-09-07 10:43:00,
2013-09-07 03:48:00,68.0,53.0,30.08,NNE,22,2.3,4.0,58,0.00,,,0.00,Rainwise IP-100,2013-09-07 10:48:00,
2013-09-07 03:53:00,67.8,53.0,30.08,North,360,3.7,3.7,60,0.00,,,0.00,Rainwise IP-100,2013-09-07 10:53:00,
2013-09-07 03:58:00,67.5,54.0,30.08,North,360,2.3,4.0,62,0.00,,,0.00,Rainwise IP-100,2013-09-07 10:58:00,
2013-09-07 04:03:00,67.3,54.0,30.08,North,360,3.0,4.0,64,0.00,,,0.00,Rainwise IP-100,2013-09-07 11:03:00,
2013-09-07 04:08:00,67.2,55.0,30.08,NNW,337,2.3,4.0,66,0.00,,,0.00,Rainwise IP-100,2013-09-07 11:08:00,
2013-09-07 04:13:00,67.3,56.0,30.08,NNW,337,1.9,2.0,67,0.00,,,0.00,Rainwise IP-100,2013-09-07 11:13:00,
2013-09-07 04:18:00,67.6,56.0,30.08,NNW,337,1.9,2.0,66,0.00,,,0.00,Rainwise IP-100,2013-09-07 11:18:00,
2013-09-07 04:23:00,68.1,55.0,30.08,NNW,337,1.6,3.0,64,0.00,,,0.00,Rainwise IP-100,2013-09-07 11:23:00,
2013-09-07 04:28:00,68.3,54.0,30.08,NNW,337,1.2,2.0,61,0.00,,,0.00,Rainwise IP-100,2013-09-07 11:28:00,
2013-09-07 04:33:00,68.2,53.0,30.08,NNW,337,0.0,2.0,60,0.00,,,0.00,Rainwise IP-100,2013-09-07 11:33:00,
2013-09-07 04:38:00,67.8,53.0,30.08,NNW,337,0.0,0.0,60,0.00,,,0.00,Rainwise IP-100,2013-09-07 11:38:00,
2013-09-07 04:43:00,67.4,53.0,30.08,NNW,337,0.0,1.0,60,0.00,,,0.00,Rainwise IP-100,2013-09-07 11:43:00,
2013-09-07 04:48:00,66.8,53.0,30.08,NNW,337,0.0,0.0,61,0.00,,,0.00,Rainwise IP-100,2013-09-07 11:48:00,
2013-09-07 04:53:00,66.2,53.0,30.08,NNW,337,0.0,0.0,63,0.00,,,0.00,Rainwise IP-100,2013-09-07 11:53:00,
2013-09-07 04:58:00,65.6,53.0,30.08,NNW,337,0.0,0.0,65,0.00,,,0.00,Rainwise IP-100,2013-09-07 11:58:00,
2013-09-07 05:03:00,65.0,53.0,30.08,NNW,337,0.0,0.0,66,0.00,,,0.00,Rainwise IP-100,2013-09-07 12:03:00,
2013-09-07 05:08:00,64.8,53.0,30.08,NNW,337,1.4,1.4,66,0.00,,,0.00,Rainwise IP-100,2013-09-07 12:08:00,
2013-09-07 05:13:00,65.2,54.0,30.08,NNE,22,1.4,2.0,67,0.00,,,0.00,Rainwise IP-100,2013-09-07 12:13:00,
2013-09-07 05:18:00,65.9,54.0,30.08,North,360,1.6,3.0,66,0.00,,,0.00,Rainwise IP-100,2013-09-07 12:18:00,
2013-09-07 05:23:00,66.6,54.0,30.08,North,360,1.2,2.0,63,0.00,,,0.00,Rainwise IP-100,2013-09-07 12:23:00,
2013-09-07 05:28:00,67.0,54.0,30.08,North,360,2.8,3.0,62,0.00,,,0.00,Rainwise IP-100,2013-09-07 12:28:00,
2013-09-07 05:33:00,67.1,53.0,30.08,NNE,22,1.6,3.0,61,0.00,,,0.00,Rainwise IP-100,2013-09-07 12:33:00,
2013-09-07 05:38:00,67.1,54.0,30.08,NNE,22,2.6,3.0,62,0.00,,,0.00,Rainwise IP-100,2013-09-07 12:38:00,
2013-09-07 05:43:00,67.3,55.0,30.08,NNE,22,3.0,5.0,65,0.00,,,0.00,Rainwise IP-100,2013-09-07 12:43:00,
2013-09-07 05:48:00,67.4,56.0,30.08,North,360,2.8,4.0,67,0.00,,,0.00,Rainwise IP-100,2013-09-07 12:48:00,
2013-09-07 05:53:00,67.4,57.0,30.09,North,360,2.6,3.0,69,0.00,,,0.00,Rainwise IP-100,2013-09-07 12:53:00,
2013-09-07 05:58:00,67.3,57.0,30.09,North,360,2.3,3.0,71,0.00,,,0.00,Rainwise IP-100,2013-09-07 12:58:00,
2013-09-07 06:03:00,67.1,57.0,30.09,NNE,22,2.1,3.0,72,0.00,,,0.00,Rainwise IP-100,2013-09-07 13:03:00,
2013-09-07 06:08:00,67.0,58.0,30.10,NNE,22,0.0,3.0,73,0.00,,,0.00,Rainwise IP-100,2013-09-07 13:08:00,
2013-09-07 06:13:00,66.6,57.0,30.09,NNE,22,0.0,0.0,73,0.00,,,0.00,Rainwise IP-100,2013-09-07 13:13:00,
2013-09-07 06:18:00,65.9,56.0,30.09,NNE,22,0.0,0.0,72,0.00,,,0.00,Rainwise IP-100,2013-09-07 13:18:00,
2013-09-07 06:23:00,65.1,56.0,30.09,NNE,22,0.0,0.0,73,0.00,,,0.00,Rainwise IP-100,2013-09-07 13:23:00,
2013-09-07 06:28:00,64.3,55.0,30.09,NNE,22,0.0,1.0,73,0.00,,,0.00,Rainwise IP-100,2013-09-07 13:28:00,
2013-09-07 06:33:00,63.8,55.0,30.09,NNE,22,0.0,1.0,74,0.00,,,0.00,Rainwise IP-100,2013-09-07 13:33:00,
2013-09-07 06:38:00,63.7,56.0,30.09,NNE,22,1.9,1.9,76,0.00,,,0.00,Rainwise IP-100,2013-09-07 13:38:00,
2013-09-07 06:43:00,63.9,57.0,30.10,NNE,22,2.1,3.0,78,0.00,,,0.00,Rainwise IP-100,2013-09-07 13:43:00,
2013-09-07 06:48:00,64.3,58.0,30.10,NNE,22,2.1,3.0,81,0.00,,,0.00,Rainwise IP-100,2013-09-07 13:48:00,
2013-09-07 06:53:00,64.5,59.0,30.10,NNE,22,1.2,2.0,83,0.00,,,0.00,Rainwise IP-100,2013-09-07 13:53:00,
2013-09-07 06:58:00,64.7,59.0,30.10,NNE,22,0.0,1.0,84,0.00,,,0.00,Rainwise IP-100,2013-09-07 13:58:00,
2013-09-07 07:03:00,64.7,59.0,30.10,NNE,22,2.1,2.1,84,0.00,,,0.00,Rainwise IP-100,2013-09-07 14:03:00,
2013-09-07 07:08:00,64.9,59.0,30.10,NNE,22,0.0,2.0,83,0.00,,,0.00,Rainwise IP-100,2013-09-07 14:08:00,
2013-09-07 07:13:00,65.1,59.0,30.10,NNE,22,1.4,1.4,83,0.00,,,0.00,Rainwise IP-100,2013-09-07 14:13:00,
2013-09-07 07:18:00,65.5,60.0,30.10,NNE,22,0.0,2.0,82,0.00,,,0.00,Rainwise IP-100,2013-09-07 14:18:00,
2013-09-07 07:23:00,66.3,60.0,30.10,NNE,22,1.6,2.0,81,0.00,,,0.00,Rainwise IP-100,2013-09-07 14:23:00,
2013-09-07 07:28:00,67.1,61.0,30.11,NE,45,2.1,3.0,80,0.00,,,0.00,Rainwise IP-100,2013-09-07 14:28:00,
2013-09-07 07:33:00,67.6,61.0,30.11,NE,45,0.0,2.0,79,0.00,,,0.00,Rainwise IP-100,2013-09-07 14:33:00,
2013-09-07 07:38:00,67.9,60.0,30.11,NE,45,0.0,0.0,77,0.00,,,0.00,Rainwise IP-100,2013-09-07 14:38:00,
2013-09-07 07:43:00,67.9,60.0,30.11,NE,45,0.0,0.0,75,0.00,,,0.00,Rainwise IP-100,2013-09-07 14:43:00,
2013-09-07 07:48:00,68.1,60.0,30.11,NE,45,0.0,0.0,75,0.00,,,0.00,Rainwise IP-100,2013-09-07 14:48:00,
2013-09-07 07:53:00,68.6,60.0,30.11,NE,45,0.0,0.0,75,0.00,,,0.00,Rainwise IP-100,2013-09-07 14:53:00,
2013-09-07 07:58:00,69.4,60.0,30.11,NE,45,0.0,0.0,74,0.00,,,0.00,Rainwise IP-100,2013-09-07 14:58:00,
2013-09-07 08:03:00,69.8,60.0,30.11,NE,45,0.0,0.0,72,0.00,,,0.00,Rainwise IP-100,2013-09-07 15:03:00,
2013-09-07 08:08:00,69.9,59.0,30.11,East,90,0.0,1.0,69,0.00,,,0.00,Rainwise IP-100,2013-09-07 15:08:00,
2013-09-07 08:13:00,70.2,59.0,30.11,East,90,0.0,0.0,68,0.00,,,0.00,Rainwise IP-100,2013-09-07 15:13:00,
2013-09-07 08:18:00,70.5,59.0,30.11,East,90,0.0,1.0,67,0.00,,,0.00,Rainwise IP-100,2013-09-07 15:18:00,
2013-09-07 08:23:00,70.8,59.0,30.11,East,90,0.0,1.0,66,0.00,,,0.00,Rainwise IP-100,2013-09-07 15:23:00,
2013-09-07 08:28:00,71.4,59.0,30.11,ESE,112,0.0,1.0,66,0.00,,,0.00,Rainwise IP-100,2013-09-07 15:28:00,
2013-09-07 08:33:00,72.1,59.0,30.11,SE,135,1.2,2.0,65,0.00,,,0.00,Rainwise IP-100,2013-09-07 15:33:00,
2013-09-07 08:38:00,72.4,59.0,30.11,SE,135,1.4,2.0,64,0.00,,,0.00,Rainwise IP-100,2013-09-07 15:38:00,
2013-09-07 08:43:00,72.4,59.0,30.12,SE,135,2.8,2.8,64,0.00,,,0.00,Rainwise IP-100,2013-09-07 15:43:00,
2013-09-07 08:48:00,72.3,59.0,30.11,SSE,157,2.6,3.0,64,0.00,,,0.00,Rainwise IP-100,2013-09-07 15:48:00,
2013-09-07 08:53:00,72.7,60.0,30.11,SSE,157,3.0,3.0,64,0.00,,,0.00,Rainwise IP-100,2013-09-07 15:53:00,
2013-09-07 08:58:00,73.2,60.0,30.11,SSE,157,2.1,3.0,63,0.00,,,0.00,Rainwise IP-100,2013-09-07 15:58:00,
2013-09-07 09:03:00,73.4,60.0,30.12,SSE,157,0.0,3.0,63,0.00,,,0.00,Rainwise IP-100,2013-09-07 16:03:00,
2013-09-07 09:08:00,74.0,60.0,30.12,SE,135,0.0,2.0,62,0.00,,,0.00,Rainwise IP-100,2013-09-07 16:08:00,
2013-09-07 09:13:00,74.9,61.0,30.12,ESE,112,0.0,2.0,61,0.00,,,0.00,Rainwise IP-100,2013-09-07 16:13:00,
2013-09-07 09:18:00,75.6,60.0,30.12,SSE,157,3.0,4.0,59,0.00,,,0.00,Rainwise IP-100,2013-09-07 16:18:00,
2013-09-07 09:23:00,75.8,60.0,30.12,ESE,112,2.8,4.0,58,0.00,,,0.00,Rainwise IP-100,2013-09-07 16:23:00,
2013-09-07 09:28:00,75.7,60.0,30.13,SSE,157,4.7,4.7,58,0.00,,,0.00,Rainwise IP-100,2013-09-07 16:28:00,
2013-09-07 09:33:00,75.9,59.0,30.13,SE,135,0.0,4.0,57,0.00,,,0.00,Rainwise IP-100,2013-09-07 16:33:00,
2013-09-07 09:38:00,76.5,60.0,30.12,SSE,157,2.3,3.0,56,0.00,,,0.00,Rainwise IP-100,2013-09-07 16:38:00,
2013-09-07 09:43:00,77.2,60.0,30.12,ESE,112,1.9,3.0,55,0.00,,,0.00,Rainwise IP-100,2013-09-07 16:43:00,
2013-09-07 09:48:00,78.1,59.0,30.13,ESE,112,1.9,3.0,53,0.00,,,0.00,Rainwise IP-100,2013-09-07 16:48:00,
2013-09-07 09:53:00,78.7,59.0,30.13,SSE,157,2.1,3.0,51,0.00,,,0.00,Rainwise IP-100,2013-09-07 16:53:00,
2013-09-07 09:58:00,79.1,59.0,30.12,SSE,157,2.3,4.0,50,0.00,,,0.00,Rainwise IP-100,2013-09-07 16:58:00,
2013-09-07 10:03:00,79.6,58.0,30.12,SE,135,2.6,4.0,48,0.00,,,0.00,Rainwise IP-100,2013-09-07 17:03:00,
2013-09-07 10:08:00,79.8,57.0,30.12,East,90,0.0,5.0,47,0.00,,,0.00,Rainwise IP-100,2013-09-07 17:08:00,
2013-09-07 10:13:00,80.2,57.0,30.12,SSE,157,0.0,5.0,46,0.00,,,0.00,Rainwise IP-100,2013-09-07 17:13:00,
2013-09-07 10:18:00,80.3,57.0,30.12,SE,135,1.9,4.0,46,0.00,,,0.00,Rainwise IP-100,2013-09-07 17:18:00,
2013-09-07 10:23:00,80.4,57.0,30.12,SE,135,2.3,3.0,45,0.00,,,0.00,Rainwise IP-100,2013-09-07 17:23:00,
2013-09-07 10:28:00,81.1,57.0,30.12,ESE,112,2.1,4.0,44,0.00,,,0.00,Rainwise IP-100,2013-09-07 17:28:00,
2013-09-07 10:33:00,81.5,57.0,30.12,SSE,157,1.6,5.0,43,0.00,,,0.00,Rainwise IP-100,2013-09-07 17:33:00,
2013-09-07 10:38:00,81.8,57.0,30.12,SW,225,4.4,4.4,44,0.00,,,0.00,Rainwise IP-100,2013-09-07 17:38:00,
2013-09-07 10:43:00,82.1,59.0,30.12,SW,225,1.2,6.0,46,0.00,,,0.00,Rainwise IP-100,2013-09-07 17:43:00,
2013-09-07 10:48:00,82.2,59.0,30.12,SSW,202,1.4,5.0,46,0.00,,,0.00,Rainwise IP-100,2013-09-07 17:48:00,
2013-09-07 10:53:00,82.1,60.0,30.12,SSW,202,0.0,6.0,47,0.00,,,0.00,Rainwise IP-100,2013-09-07 17:53:00,
2013-09-07 10:58:00,82.0,60.0,30.12,South,180,6.1,6.1,47,0.00,,,0.00,Rainwise IP-100,2013-09-07 17:58:00,
2013-09-07 11:03:00,82.0,59.0,30.12,SW,225,4.2,6.0,46,0.00,,,0.00,Rainwise IP-100,2013-09-07 18:03:00,
2013-09-07 11:08:00,81.7,59.0,30.12,WSW,247,2.8,6.0,46,0.00,,,0.00,Rainwise IP-100,2013-09-07 18:08:00,
2013-09-07 11:13:00,81.5,59.0,30.13,SW,225,3.5,7.0,46,0.00,,,0.00,Rainwise IP-100,2013-09-07 18:13:00,
2013-09-07 11:18:00,81.2,59.0,30.12,SSW,202,3.7,8.0,47,0.00,,,0.00,Rainwise IP-100,2013-09-07 18:18:00,
2013-09-07 11:23:00,81.7,59.0,30.12,WSW,247,4.4,7.0,46,0.00,,,0.00,Rainwise IP-100,2013-09-07 18:23:00,
2013-09-07 11:27:00,81.9,59.0,30.12,SSW,202,4.9,8.0,45,0.00,,,0.00,Rainwise IP-100,2013-09-07 18:27:00,
2013-09-07 11:32:00,81.2,58.0,30.12,SW,225,6.1,9.0,45,0.00,,,0.00,Rainwise IP-100,2013-09-07 18:32:00,
2013-09-07 11:37:00,80.9,57.0,30.12,WSW,247,7.5,8.0,45,0.00,,,0.00,Rainwise IP-100,2013-09-07 18:37:00,
2013-09-07 11:42:00,80.9,58.0,30.12,WNW,292,4.7,9.0,46,0.00,,,0.00,Rainwise IP-100,2013-09-07 18:42:00,
2013-09-07 11:47:00,81.2,59.0,30.12,SSW,202,6.8,7.0,46,0.00,,,0.00,Rainwise IP-100,2013-09-07 18:47:00,
2013-09-07 11:52:00,81.2,59.0,30.12,SSE,157,4.4,8.0,46,0.00,,,0.00,Rainwise IP-100,2013-09-07 18:52:00,
2013-09-07 11:57:00,81.1,58.0,30.12,SSW,202,5.8,9.0,46,0.00,,,0.00,Rainwise IP-100,2013-09-07 18:57:00,
2013-09-07 12:02:00,81.4,59.0,30.12,NNW,337,2.1,9.0,46,0.00,,,0.00,Rainwise IP-100,2013-09-07 19:02:00,
2013-09-07 12:07:00,81.4,58.0,30.11,SSW,202,2.6,7.0,45,0.00,,,0.00,Rainwise IP-100,2013-09-07 19:07:00,
2013-09-07 12:08:00,81.4,58.0,30.11,SSW,202,7.2,8.0,45,0.00,,,0.00,Rainwise IP-100,2013-09-07 19:08:00,
2013-09-07 12:13:00,81.0,57.0,30.12,SSW,202,5.8,10.0,45,0.00,,,0.00,Rainwise IP-100,2013-09-07 19:13:00,
2013-09-07 12:18:00,80.6,57.0,30.11,WNW,292,3.3,10.0,45,0.00,,,0.00,Rainwise IP-100,2013-09-07 19:18:00,
2013-09-07 12:23:00,80.9,57.0,30.12,WNW,292,2.3,10.0,45,0.00,,,0.00,Rainwise IP-100,2013-09-07 19:23:00,
2013-09-07 12:28:00,81.5,57.0,30.12,North,360,0.0,12.0,44,0.00,,,0.00,Rainwise IP-100,2013-09-07 19:28:00,
2013-09-07 12:33:00,81.6,57.0,30.11,WNW,292,2.1,7.0,44,0.00,,,0.00,Rainwise IP-100,2013-09-07 19:33:00,
2013-09-07 12:38:00,81.1,56.0,30.11,WSW,247,3.5,9.0,43,0.00,,,0.00,Rainwise IP-100,2013-09-07 19:38:00,
2013-09-07 12:43:00,80.3,56.0,30.11,WSW,247,6.8,8.0,44,0.00,,,0.00,Rainwise IP-100,2013-09-07 19:43:00,
2013-09-07 12:48:00,79.0,56.0,30.12,West,270,4.0,10.0,45,0.00,,,0.00,Rainwise IP-100,2013-09-07 19:48:00,
2013-09-07 12:53:00,77.9,56.0,30.11,NNW,337,1.4,11.0,47,0.00,,,0.00,Rainwise IP-100,2013-09-07 19:53:00,
2013-09-07 12:58:00,77.5,56.0,30.11,WSW,247,1.9,12.0,48,0.00,,,0.00,Rainwise IP-100,2013-09-07 19:58:00,
2013-09-07 13:03:00,77.2,56.0,30.11,WNW,292,2.3,10.0,48,0.00,,,0.00,Rainwise IP-100,2013-09-07 20:03:00,
2013-09-07 13:08:00,77.5,57.0,30.11,WNW,292,2.6,12.0,49,0.00,,,0.00,Rainwise IP-100,2013-09-07 20:08:00,
2013-09-07 13:13:00,77.8,57.0,30.11,West,270,0.0,10.0,49,0.00,,,0.00,Rainwise IP-100,2013-09-07 20:13:00,
2013-09-07 13:18:00,77.5,57.0,30.11,SW,225,11.2,11.2,49,0.00,,,0.00,Rainwise IP-100,2013-09-07 20:18:00,
2013-09-07 13:23:00,76.0,56.0,30.11,ENE,67,3.0,11.0,51,0.00,,,0.00,Rainwise IP-100,2013-09-07 20:23:00,
2013-09-07 13:28:00,75.4,56.0,30.11,WNW,292,3.7,12.0,52,0.00,,,0.00,Rainwise IP-100,2013-09-07 20:28:00,
2013-09-07 13:33:00,76.2,57.0,30.11,North,360,1.4,8.0,52,0.00,,,0.00,Rainwise IP-100,2013-09-07 20:33:00,
2013-09-07 13:38:00,76.5,57.0,30.10,WNW,292,3.3,9.0,51,0.00,,,0.00,Rainwise IP-100,2013-09-07 20:38:00,
2013-09-07 13:43:00,76.4,57.0,30.10,SW,225,5.1,11.0,51,0.00,,,0.00,Rainwise IP-100,2013-09-07 20:43:00,
2013-09-07 13:48:00,76.1,56.0,30.10,WNW,292,3.3,16.0,51,0.00,,,0.00,Rainwise IP-100,2013-09-07 20:48:00,
2013-09-07 13:53:00,75.5,56.0,30.10,SSW,202,1.6,13.0,52,0.00,,,0.00,Rainwise IP-100,2013-09-07 20:53:00,
2013-09-07 13:58:00,75.1,57.0,30.10,NNE,22,0.0,11.0,53,0.00,,,0.00,Rainwise IP-100,2013-09-07 20:58:00,
2013-09-07 14:03:00,75.3,57.0,30.10,WNW,292,5.6,8.0,53,0.00,,,0.00,Rainwise IP-100,2013-09-07 21:03:00,
2013-09-07 14:08:00,75.9,56.0,30.10,WNW,292,5.6,9.0,51,0.00,,,0.00,Rainwise IP-100,2013-09-07 21:08:00,
2013-09-07 14:13:00,75.9,56.0,30.10,ESE,112,1.4,9.0,50,0.00,,,0.00,Rainwise IP-100,2013-09-07 21:13:00,
2013-09-07 14:18:00,75.9,56.0,30.09,NNW,337,5.1,10.0,51,0.00,,,0.00,Rainwise IP-100,2013-09-07 21:18:00,
2013-09-07 14:23:00,76.4,57.0,30.10,NNW,337,2.3,15.0,51,0.00,,,0.00,Rainwise IP-100,2013-09-07 21:23:00,
2013-09-07 14:28:00,76.7,57.0,30.09,WNW,292,13.8,13.8,51,0.00,,,0.00,Rainwise IP-100,2013-09-07 21:28:00,
2013-09-07 14:33:00,76.5,57.0,30.09,West,270,14.7,14.7,51,0.00,,,0.00,Rainwise IP-100,2013-09-07 21:33:00,
2013-09-07 14:38:00,75.7,56.0,30.09,WNW,292,12.4,15.0,51,0.00,,,0.00,Rainwise IP-100,2013-09-07 21:38:00,
2013-09-07 14:43:00,74.8,56.0,30.09,SSE,157,4.0,17.0,52,0.00,,,0.00,Rainwise IP-100,2013-09-07 21:43:00,
2013-09-07 14:48:00,74.0,56.0,30.09,WNW,292,6.5,17.0,53,0.00,,,0.00,Rainwise IP-100,2013-09-07 21:48:00,
2013-09-07 14:53:00,73.3,56.0,30.09,WNW,292,14.7,18.0,55,0.00,,,0.00,Rainwise IP-100,2013-09-07 21:53:00,
2013-09-07 14:58:00,72.3,56.0,30.09,NW,315,3.5,17.0,57,0.00,,,0.00,Rainwise IP-100,2013-09-07 21:58:00,
2013-09-07 15:03:00,72.1,56.0,30.09,WNW,292,6.1,13.0,57,0.00,,,0.00,Rainwise IP-100,2013-09-07 22:03:00,
2013-09-07 15:08:00,72.5,56.0,30.09,WSW,247,2.8,16.0,57,0.00,,,0.00,Rainwise IP-100,2013-09-07 22:08:00,
2013-09-07 15:13:00,72.2,56.0,30.09,WSW,247,3.5,13.0,57,0.00,,,0.00,Rainwise IP-100,2013-09-07 22:13:00,
2013-09-07 15:18:00,71.8,55.0,30.09,NNW,337,6.8,14.0,57,0.00,,,0.00,Rainwise IP-100,2013-09-07 22:18:00,
2013-09-07 15:23:00,71.3,56.0,30.09,West,270,2.1,17.0,58,0.00,,,0.00,Rainwise IP-100,2013-09-07 22:23:00,
2013-09-07 15:28:00,70.8,55.0,30.09,WSW,247,5.8,19.0,59,0.00,,,0.00,Rainwise IP-100,2013-09-07 22:28:00,
2013-09-07 15:33:00,70.6,55.0,30.09,NNW,337,4.4,12.0,59,0.00,,,0.00,Rainwise IP-100,2013-09-07 22:33:00,
2013-09-07 15:38:00,70.5,56.0,30.09,WSW,247,7.0,13.0,60,0.00,,,0.00,Rainwise IP-100,2013-09-07 22:38:00,
2013-09-07 15:43:00,70.7,56.0,30.09,WNW,292,5.4,12.0,61,0.00,,,0.00,Rainwise IP-100,2013-09-07 22:43:00,
2013-09-07 15:48:00,70.4,56.0,30.09,WSW,247,6.3,14.0,60,0.00,,,0.00,Rainwise IP-100,2013-09-07 22:48:00,
2013-09-07 15:53:00,70.3,56.0,30.08,SW,225,9.8,14.0,61,0.00,,,0.00,Rainwise IP-100,2013-09-07 22:53:00,
2013-09-07 15:58:00,70.3,56.0,30.08,WSW,247,2.8,15.0,62,0.00,,,0.00,Rainwise IP-100,2013-09-07 22:58:00,
2013-09-07 16:03:00,70.3,56.0,30.08,SW,225,8.6,14.0,62,0.00,,,0.00,Rainwise IP-100,2013-09-07 23:03:00,
2013-09-07 16:08:00,70.1,56.0,30.08,WSW,247,6.5,12.0,62,0.00,,,0.00,Rainwise IP-100,2013-09-07 23:08:00,
2013-09-07 16:13:00,69.6,56.0,30.08,WSW,247,5.8,10.0,63,0.00,,,0.00,Rainwise IP-100,2013-09-07 23:13:00,
2013-09-07 16:18:00,69.6,57.0,30.08,NNW,337,3.7,16.0,64,0.00,,,0.00,Rainwise IP-100,2013-09-07 23:18:00,
2013-09-07 16:23:00,69.8,56.0,30.08,SW,225,5.8,17.0,63,0.00,,,0.00,Rainwise IP-100,2013-09-07 23:23:00,
2013-09-07 16:28:00,69.7,56.0,30.08,WSW,247,3.3,12.0,63,0.00,,,0.00,Rainwise IP-100,2013-09-07 23:28:00,
2013-09-07 16:33:00,69.0,56.0,30.08,NNW,337,1.6,14.0,64,0.00,,,0.00,Rainwise IP-100,2013-09-07 23:33:00,
2013-09-07 16:38:00,68.8,56.0,30.07,West,270,4.9,13.0,64,0.00,,,0.00,Rainwise IP-100,2013-09-07 23:38:00,
2013-09-07 16:43:00,69.0,56.0,30.07,SW,225,2.8,13.0,64,0.00,,,0.00,Rainwise IP-100,2013-09-07 23:43:00,
2013-09-07 16:48:00,68.8,56.0,30.07,WNW,292,7.0,18.0,64,0.00,,,0.00,Rainwise IP-100,2013-09-07 23:48:00,
2013-09-07 16:53:00,68.7,56.0,30.07,SSE,157,5.4,12.0,65,0.00,,,0.00,Rainwise IP-100,2013-09-07 23:53:00,
2013-09-07 16:58:00,68.6,56.0,30.07,NW,315,5.1,13.0,65,0.00,,,0.00,Rainwise IP-100,2013-09-07 23:58:00,
2013-09-07 17:03:00,68.2,56.0,30.08,SSE,157,11.2,11.2,66,0.00,,,0.00,Rainwise IP-100,2013-09-08 00:03:00,
2013-09-07 17:08:00,67.6,56.0,30.08,WSW,247,3.7,13.0,68,0.00,,,0.00,Rainwise IP-100,2013-09-08 00:08:00,
2013-09-07 17:13:00,66.8,56.0,30.08,WSW,247,4.9,13.0,70,0.00,,,0.00,Rainwise IP-100,2013-09-08 00:13:00,
2013-09-07 17:18:00,66.0,56.0,30.08,East,90,2.1,10.0,72,0.00,,,0.00,Rainwise IP-100,2013-09-08 00:18:00,
2013-09-07 17:23:00,65.6,57.0,30.08,SSW,202,11.7,13.0,74,0.00,,,0.00,Rainwise IP-100,2013-09-08 00:23:00,
2013-09-07 17:28:00,65.5,57.0,30.08,SW,225,1.9,11.0,74,0.00,,,0.00,Rainwise IP-100,2013-09-08 00:28:00,
2013-09-07 17:33:00,65.6,57.0,30.07,South,180,4.9,11.0,74,0.00,,,0.00,Rainwise IP-100,2013-09-08 00:33:00,
2013-09-07 17:38:00,65.7,57.0,30.08,WSW,247,6.8,11.0,74,0.00,,,0.00,Rainwise IP-100,2013-09-08 00:38:00,
2013-09-07 17:43:00,65.5,57.0,30.08,WNW,292,1.6,14.0,75,0.00,,,0.00,Rainwise IP-100,2013-09-08 00:43:00,
2013-09-07 17:48:00,65.5,57.0,30.08,WNW,292,5.4,12.0,75,0.00,,,0.00,Rainwise IP-100,2013-09-08 00:48:00,
2013-09-07 17:53:00,65.5,57.0,30.07,SSE,157,2.6,11.0,76,0.00,,,0.00,Rainwise IP-100,2013-09-08 00:53:00,
2013-09-07 17:58:00,65.3,57.0,30.07,SE,135,3.3,13.0,76,0.00,,,0.00,Rainwise IP-100,2013-09-08 00:58:00,
2013-09-07 18:03:00,64.5,57.0,30.07,SSE,157,4.7,13.0,77,0.00,,,0.00,Rainwise IP-100,2013-09-08 01:03:00,
2013-09-07 18:08:00,63.9,57.0,30.07,WSW,247,2.8,12.0,78,0.00,,,0.00,Rainwise IP-100,2013-09-08 01:08:00,
2013-09-07 18:13:00,63.7,57.0,30.08,WSW,247,6.1,10.0,79,0.00,,,0.00,Rainwise IP-100,2013-09-08 01:13:00,
2013-09-07 18:18:00,63.6,57.0,30.08,SW,225,4.0,11.0,79,0.00,,,0.00,Rainwise IP-100,2013-09-08 01:18:00,
2013-09-07 18:23:00,63.3,56.0,30.07,SSW,202,2.3,12.0,80,0.00,,,0.00,Rainwise IP-100,2013-09-08 01:23:00,
2013-09-07 18:28:00,63.2,56.0,30.07,North,360,2.1,11.0,80,0.00,,,0.00,Rainwise IP-100,2013-09-08 01:28:00,
2013-09-07 18:33:00,63.1,57.0,30.07,WSW,247,9.3,14.0,81,0.00,,,0.00,Rainwise IP-100,2013-09-08 01:33:00,
2013-09-07 18:38:00,62.7,57.0,30.07,SSW,202,0.0,16.0,82,0.00,,,0.00,Rainwise IP-100,2013-09-08 01:38:00,
2013-09-07 18:43:00,62.4,57.0,30.07,WSW,247,10.3,10.3,82,0.00,,,0.00,Rainwise IP-100,2013-09-08 01:43:00,
2013-09-07 18:48:00,62.0,56.0,30.07,WSW,247,6.5,14.0,83,0.00,,,0.00,Rainwise IP-100,2013-09-08 01:48:00,
2013-09-07 18:53:00,61.4,57.0,30.08,WSW,247,2.8,14.0,85,0.00,,,0.00,Rainwise IP-100,2013-09-08 01:53:00,
2013-09-07 18:58:00,60.9,56.0,30.07,West,270,1.6,12.0,86,0.00,,,0.00,Rainwise IP-100,2013-09-08 01:58:00,
2013-09-07 19:03:00,60.6,56.0,30.07,WSW,247,1.6,11.0,87,0.00,,,0.00,Rainwise IP-100,2013-09-08 02:03:00,
2013-09-07 19:08:00,60.2,56.0,30.08,SW,225,4.7,9.0,87,0.00,,,0.00,Rainwise IP-100,2013-09-08 02:08:00,
2013-09-07 19:13:00,59.7,56.0,30.08,WNW,292,4.9,10.0,88,0.00,,,0.00,Rainwise IP-100,2013-09-08 02:13:00,
2013-09-07 19:18:00,59.4,56.0,30.08,NNW,337,3.7,10.0,89,0.00,,,0.00,Rainwise IP-100,2013-09-08 02:18:00,
2013-09-07 19:23:00,59.0,56.0,30.08,WNW,292,7.0,12.0,90,0.00,,,0.00,Rainwise IP-100,2013-09-08 02:23:00,
2013-09-07 19:28:00,58.4,56.0,30.07,SW,225,7.9,11.0,92,0.00,,,0.00,Rainwise IP-100,2013-09-08 02:28:00,
2013-09-07 19:33:00,57.9,56.0,30.08,WNW,292,1.2,12.0,93,0.00,,,0.00,Rainwise IP-100,2013-09-08 02:33:00,
2013-09-07 19:38:00,57.4,56.0,30.08,WSW,247,1.2,7.0,94,0.00,,,0.00,Rainwise IP-100,2013-09-08 02:38:00,
2013-09-07 19:43:00,57.2,55.0,30.08,SW,225,4.4,11.0,94,0.00,,,0.00,Rainwise IP-100,2013-09-08 02:43:00,
2013-09-07 19:48:00,57.0,56.0,30.08,WNW,292,4.7,9.0,95,0.00,,,0.00,Rainwise IP-100,2013-09-08 02:48:00,
2013-09-07 19:53:00,56.8,55.0,30.08,West,270,1.2,12.0,95,0.00,,,0.00,Rainwise IP-100,2013-09-08 02:53:00,
2013-09-07 19:58:00,56.5,55.0,30.08,West,270,3.5,10.0,95,0.00,,,0.00,Rainwise IP-100,2013-09-08 02:58:00,
2013-09-07 20:03:00,56.3,54.0,30.08,WNW,292,6.5,9.0,96,0.00,,,0.00,Rainwise IP-100,2013-09-08 03:03:00,
2013-09-07 20:08:00,56.3,54.0,30.09,ESE,112,1.2,10.0,96,0.00,,,0.00,Rainwise IP-100,2013-09-08 03:08:00,
2013-09-07 20:13:00,56.3,54.0,30.09,WSW,247,3.3,10.0,96,0.00,,,0.00,Rainwise IP-100,2013-09-08 03:13:00,
2013-09-07 20:18:00,56.3,55.0,30.09,North,360,1.9,10.0,97,0.00,,,0.00,Rainwise IP-100,2013-09-08 03:18:00,
2013-09-07 20:23:00,56.3,55.0,30.09,SE,135,1.4,8.0,97,0.00,,,0.00,Rainwise IP-100,2013-09-08 03:23:00,
2013-09-07 20:28:00,56.3,55.0,30.09,WNW,292,2.3,7.0,97,0.00,,,0.00,Rainwise IP-100,2013-09-08 03:28:00,
2013-09-07 20:33:00,56.2,55.0,30.10,SW,225,4.7,8.0,98,0.00,,,0.00,Rainwise IP-100,2013-09-08 03:33:00,
2013-09-07 20:38:00,56.1,55.0,30.09,SW,225,4.7,9.0,98,0.00,,,0.00,Rainwise IP-100,2013-09-08 03:38:00,
2013-09-07 20:43:00,56.1,55.0,30.10,WSW,247,2.8,9.0,98,0.00,,,0.00,Rainwise IP-100,2013-09-08 03:43:00,
2013-09-07 20:48:00,56.2,55.0,30.10,South,180,2.8,6.0,98,0.00,,,0.00,Rainwise IP-100,2013-09-08 03:48:00,
2013-09-07 20:53:00,56.1,55.0,30.10,West,270,7.5,10.0,98,0.00,,,0.00,Rainwise IP-100,2013-09-08 03:53:00,
2013-09-07 20:58:00,55.9,55.0,30.10,East,90,0.0,9.0,98,0.00,,,0.00,Rainwise IP-100,2013-09-08 03:58:00,
2013-09-07 21:01:00,55.9,55.0,30.10,SW,225,5.1,8.0,98,0.00,,,0.00,Rainwise IP-100,2013-09-08 04:01:00,
2013-09-07 21:06:00,55.9,55.0,30.10,WNW,292,1.6,11.0,98,0.00,,,0.00,Rainwise IP-100,2013-09-08 04:06:00,
2013-09-07 21:11:00,56.0,56.0,30.10,SW,225,2.8,9.0,99,0.00,,,0.00,Rainwise IP-100,2013-09-08 04:11:00,
2013-09-07 21:16:00,56.1,56.0,30.10,SSW,202,4.0,9.0,99,0.00,,,0.00,Rainwise IP-100,2013-09-08 04:16:00,
2013-09-07 21:21:00,56.1,56.0,30.11,SSW,202,5.1,9.0,99,0.00,,,0.00,Rainwise IP-100,2013-09-08 04:21:00,
2013-09-07 21:26:00,56.1,56.0,30.11,SW,225,7.7,11.0,99,0.00,,,0.00,Rainwise IP-100,2013-09-08 04:26:00,
2013-09-07 21:31:00,56.1,56.0,30.10,SSW,202,3.0,8.0,99,0.00,,,0.00,Rainwise IP-100,2013-09-08 04:31:00,
2013-09-07 21:36:00,56.1,56.0,30.11,NNW,337,2.1,11.0,99,0.00,,,0.00,Rainwise IP-100,2013-09-08 04:36:00,
2013-09-07 21:41:00,56.1,56.0,30.11,SSW,202,4.7,11.0,99,0.00,,,0.00,Rainwise IP-100,2013-09-08 04:41:00,
2013-09-07 21:46:00,55.8,56.0,30.11,SSW,202,1.4,17.0,99,0.00,,,0.00,Rainwise IP-100,2013-09-08 04:46:00,
2013-09-07 21:51:00,55.5,56.0,30.11,SW,225,2.6,10.0,99,0.00,,,0.00,Rainwise IP-100,2013-09-08 04:51:00,
2013-09-07 21:56:00,55.4,55.0,30.11,North,360,2.1,11.0,99,0.00,,,0.00,Rainwise IP-100,2013-09-08 04:56:00,
2013-09-07 22:01:00,55.3,55.0,30.12,SSW,202,3.5,11.0,99,0.00,,,0.00,Rainwise IP-100,2013-09-08 05:01:00,
2013-09-07 22:06:00,55.3,55.0,30.11,WNW,292,1.6,11.0,99,0.00,,,0.00,Rainwise IP-100,2013-09-08 05:06:00,
2013-09-07 22:11:00,55.4,55.0,30.12,WSW,247,4.2,16.0,100,0.00,,,0.00,Rainwise IP-100,2013-09-08 05:11:00,
2013-09-07 22:16:00,55.3,55.0,30.12,SW,225,0.0,16.0,100,0.00,,,0.00,Rainwise IP-100,2013-09-08 05:16:00,
2013-09-07 22:21:00,55.3,55.0,30.12,SW,225,11.4,12.0,100,0.00,,,0.00,Rainwise IP-100,2013-09-08 05:21:00,
2013-09-07 22:26:00,55.3,55.0,30.12,SW,225,6.1,13.0,100,0.00,,,0.00,Rainwise IP-100,2013-09-08 05:26:00,
2013-09-07 22:31:00,55.3,55.0,30.12,SW,225,8.6,10.0,100,0.00,,,0.00,Rainwise IP-100,2013-09-08 05:31:00,
2013-09-07 22:36:00,55.4,55.0,30.12,WSW,247,1.2,11.0,100,0.00,,,0.00,Rainwise IP-100,2013-09-08 05:36:00,
2013-09-07 22:41:00,55.3,55.0,30.12,SSW,202,4.4,8.0,100,0.00,,,0.00,Rainwise IP-100,2013-09-08 05:41:00,
2013-09-07 22:46:00,55.3,55.0,30.12,WSW,247,3.7,11.0,100,0.00,,,0.00,Rainwise IP-100,2013-09-08 05:46:00,
2013-09-07 22:51:00,55.2,55.0,30.12,WSW,247,6.5,11.0,100,0.00,,,0.00,Rainwise IP-100,2013-09-08 05:51:00,
2013-09-07 22:56:00,55.2,55.0,30.11,SSW,202,3.7,8.0,100,0.00,,,0.00,Rainwise IP-100,2013-09-08 05:56:00,
2013-09-07 23:01:00,55.3,55.0,30.12,South,180,4.0,11.0,100,0.00,,,0.00,Rainwise IP-100,2013-09-08 06:01:00,
2013-09-07 23:06:00,55.3,55.0,30.11,WSW,247,4.7,14.0,100,0.00,,,0.00,Rainwise IP-100,2013-09-08 06:06:00,
2013-09-07 23:11:00,55.3,55.0,30.11,SW,225,4.0,10.0,100,0.00,,,0.00,Rainwise IP-100,2013-09-08 06:11:00,
2013-09-07 23:16:00,55.4,55.0,30.11,SSW,202,5.6,10.0,100,0.00,,,0.00,Rainwise IP-100,2013-09-08 06:16:00,
2013-09-07 23:21:00,55.4,55.0,30.11,SW,225,5.1,9.0,100,0.00,,,0.00,Rainwise IP-100,2013-09-08 06:21:00,
2013-09-07 23:26:00,55.4,55.0,30.11,SSW,202,5.6,11.0,100,0.00,,,0.00,Rainwise IP-100,2013-09-08 06:26:00,
2013-09-07 23:31:00,55.4,55.0,30.11,SW,225,8.9,9.0,100,0.00,,,0.00,Rainwise IP-100,2013-09-08 06:31:00,
2013-09-07 23:36:00,55.4,55.0,30.11,West,270,3.7,12.0,100,0.00,,,0.00,Rainwise IP-100,2013-09-08 06:36:00,
2013-09-07 23:41:00,55.4,55.0,30.11,WSW,247,4.7,11.0,100,0.00,,,0.00,Rainwise IP-100,2013-09-08 06:41:00,
2013-09-07 23:46:00,55.4,55.0,30.12,SW,225,7.7,12.0,100,0.00,,,0.00,Rainwise IP-100,2013-09-08 06:46:00,
2013-09-07 23:51:00,55.4,55.0,30.12,WNW,292,1.4,13.0,100,0.00,,,0.00,Rainwise IP-100,2013-09-08 06:51:00,
2013-09-07 23:56:00,55.5,56.0,30.12,WNW,292,4.0,12.0,100,0.00,,,0.00,Rainwise IP-100,2013-09-08 06:56:00,